VOZ555 YSSY-YPPH

Flight info

Callsign VOZ555
Flight time N/A
Altitude 36000
Route KADOM H44 BORLI Q32 NODEV Q10 MALUP Q158 PH
Aircraft B38M/M-SDE1FGHILORVWXY/HB1

Departure

Time 2026-05-05 20:56
Airport Sydney Kingsford Smith International Airport (YSSY)

Arrival

Time N/A
Airport Perth International Airport (YPPH)
Time Latitude Longitude Altitude Speed Heading
2026-05-05 20:22 -33.93558 151.18016 33 ft 0 kts 278°
2026-05-05 20:43 -33.93560 151.18030 33 ft 4 kts 280°
2026-05-05 20:44 -33.93562 151.18059 33 ft 4 kts 244°
2026-05-05 20:44 -33.93558 151.18064 33 ft 1 kts 192°
2026-05-05 20:47 -33.93559 151.18064 33 ft 1 kts 192°
2026-05-05 20:48 -33.93573 151.18060 33 ft 4 kts 191°
2026-05-05 20:48 -33.93614 151.18053 33 ft 7 kts 179°
2026-05-05 20:48 -33.93668 151.18057 33 ft 9 kts 176°
2026-05-05 20:48 -33.93731 151.18079 33 ft 10 kts 155°
2026-05-05 20:49 -33.93755 151.18086 33 ft 2 kts 179°
2026-05-05 20:49 -33.93774 151.18071 33 ft 5 kts 235°
2026-05-05 20:49 -33.93789 151.18014 33 ft 10 kts 253°
2026-05-05 20:49 -33.93813 151.17900 29 ft 18 kts 252°
2026-05-05 20:50 -33.93857 151.17715 23 ft 27 kts 253°
2026-05-05 20:50 -33.93915 151.17474 22 ft 32 kts 254°
2026-05-05 20:50 -33.93972 151.17253 24 ft 21 kts 229°
2026-05-05 20:50 -33.94109 151.17260 26 ft 22 kts 167°
2026-05-05 20:51 -33.94276 151.17304 26 ft 26 kts 168°
2026-05-05 20:51 -33.94467 151.17352 29 ft 30 kts 168°
2026-05-05 20:51 -33.94685 151.17410 28 ft 34 kts 168°
2026-05-05 20:51 -33.94934 151.17474 22 ft 32 kts 168°
2026-05-05 20:52 -33.95124 151.17523 22 ft 28 kts 168°
2026-05-05 20:52 -33.95324 151.17573 23 ft 30 kts 168°
2026-05-05 20:52 -33.95526 151.17627 25 ft 30 kts 168°
2026-05-05 20:52 -33.95723 151.17678 27 ft 29 kts 167°
2026-05-05 20:53 -33.95927 151.17732 27 ft 31 kts 168°
2026-05-05 20:53 -33.96137 151.17787 27 ft 31 kts 168°
2026-05-05 20:53 -33.96344 151.17840 27 ft 29 kts 168°
2026-05-05 20:53 -33.96446 151.17917 26 ft 2 kts 84°
2026-05-05 20:54 -33.96440 151.17943 27 ft 4 kts 74°
2026-05-05 20:54 -33.96432 151.17982 26 ft 5 kts 76°
2026-05-05 20:54 -33.96422 151.18031 27 ft 7 kts 76°
2026-05-05 20:54 -33.96392 151.18065 27 ft 6 kts 353°
2026-05-05 20:55 -33.96354 151.18048 26 ft 6 kts 345°
2026-05-05 20:55 -33.96303 151.18033 27 ft 11 kts 347°
2026-05-05 20:55 -33.96010 151.17955 22 ft 79 kts 347°
2026-05-05 20:55 -33.95259 151.17761 26 ft 139 kts 347°
2026-05-05 20:56 -33.94162 151.17478 131 ft 176 kts 347°
2026-05-05 20:56 -33.92907 151.17160 669 ft 188 kts 347°
2026-05-05 20:56 -33.91655 151.16783 1550 ft 183 kts 339°
2026-05-05 20:56 -33.90531 151.16006 2150 ft 200 kts 317°
2026-05-05 20:57 -33.89661 151.14610 2676 ft 220 kts 302°
2026-05-05 20:57 -33.88816 151.12964 3208 ft 241 kts 303°
2026-05-05 20:57 -33.87889 151.11207 3925 ft 252 kts 304°
2026-05-05 20:57 -33.86947 151.09436 4911 ft 257 kts 304°
2026-05-05 20:58 -33.85944 151.07565 5558 ft 274 kts 304°
2026-05-05 20:58 -33.84904 151.05632 6530 ft 274 kts 304°
2026-05-05 20:58 -33.83866 151.03704 7501 ft 276 kts 303°
2026-05-05 20:58 -33.82943 151.01701 8380 ft 279 kts 292°
2026-05-05 20:59 -33.82435 150.99442 9298 ft 281 kts 281°
2026-05-05 20:59 -33.82070 150.97121 10197 ft 285 kts 281°
2026-05-05 20:59 -33.81683 150.94721 10685 ft 301 kts 281°
2026-05-05 20:59 -33.81271 150.92175 11113 ft 318 kts 281°
2026-05-05 21:00 -33.80840 150.89519 11676 ft 327 kts 281°
2026-05-05 21:00 -33.80406 150.86833 12509 ft 329 kts 281°
2026-05-05 21:00 -33.79967 150.84115 13231 ft 333 kts 281°
2026-05-05 21:00 -33.79522 150.81371 13992 ft 336 kts 281°
2026-05-05 21:01 -33.79074 150.78605 14661 ft 339 kts 281°
2026-05-05 21:01 -33.78628 150.75852 15311 ft 342 kts 281°
2026-05-05 21:01 -33.78169 150.73036 15954 ft 344 kts 281°
2026-05-05 21:01 -33.77708 150.70200 16588 ft 347 kts 281°
2026-05-05 21:02 -33.77242 150.67345 17218 ft 350 kts 281°
2026-05-05 21:02 -33.76773 150.64471 17842 ft 352 kts 281°
2026-05-05 21:02 -33.76302 150.61593 18435 ft 355 kts 281°
2026-05-05 21:02 -33.75822 150.58668 18963 ft 358 kts 281°
2026-05-05 21:03 -33.75340 150.55730 19471 ft 360 kts 281°
2026-05-05 21:03 -33.74860 150.52806 19956 ft 362 kts 281°
2026-05-05 21:03 -33.74369 150.49828 20464 ft 365 kts 281°
2026-05-05 21:03 -33.73875 150.46830 20952 ft 367 kts 281°
2026-05-05 21:04 -33.73378 150.43815 21446 ft 370 kts 281°
2026-05-05 21:04 -33.72875 150.40774 21930 ft 372 kts 281°
2026-05-05 21:04 -33.72367 150.37710 22441 ft 375 kts 281°
2026-05-05 21:04 -33.71857 150.34635 22915 ft 377 kts 281°
2026-05-05 21:05 -33.71347 150.31535 23393 ft 380 kts 279°
2026-05-05 21:05 -33.71275 150.28369 23874 ft 382 kts 264°
2026-05-05 21:05 -33.71539 150.25227 24232 ft 386 kts 265°
2026-05-05 21:05 -33.71797 150.22011 24621 ft 388 kts 265°
2026-05-05 21:06 -33.72068 150.18786 25026 ft 390 kts 265°
2026-05-05 21:06 -33.72347 150.15535 25403 ft 393 kts 264°
2026-05-05 21:06 -33.72631 150.12254 25787 ft 396 kts 264°
2026-05-05 21:06 -33.72916 150.08959 26156 ft 398 kts 264°
2026-05-05 21:07 -33.73202 150.05639 26548 ft 401 kts 264°
2026-05-05 21:07 -33.73489 150.02307 26899 ft 403 kts 264°
2026-05-05 21:07 -33.73774 149.98990 27253 ft 406 kts 264°
2026-05-05 21:07 -33.74063 149.95610 27610 ft 408 kts 264°
2026-05-05 21:08 -33.74353 149.92207 27952 ft 411 kts 264°
2026-05-05 21:08 -33.74643 149.88788 28301 ft 413 kts 264°
2026-05-05 21:08 -33.74934 149.85356 28627 ft 416 kts 264°
2026-05-05 21:08 -33.75225 149.81905 28949 ft 418 kts 264°
2026-05-05 21:09 -33.75518 149.78423 29289 ft 420 kts 264°
2026-05-05 21:09 -33.75812 149.74919 29603 ft 423 kts 264°
2026-05-05 21:09 -33.76106 149.71397 29924 ft 425 kts 264°
2026-05-05 21:09 -33.76397 149.67906 30226 ft 428 kts 264°
2026-05-05 21:10 -33.76693 149.64339 30492 ft 430 kts 264°
2026-05-05 21:10 -33.76990 149.60758 30772 ft 431 kts 265°
2026-05-05 21:10 -33.77285 149.57160 31040 ft 433 kts 265°
2026-05-05 21:10 -33.77582 149.53546 31296 ft 435 kts 265°
2026-05-05 21:11 -33.77878 149.49927 31566 ft 437 kts 265°
2026-05-05 21:11 -33.78174 149.46290 31823 ft 438 kts 265°
2026-05-05 21:11 -33.78470 149.42642 32086 ft 440 kts 265°
2026-05-05 21:11 -33.78762 149.39034 32357 ft 441 kts 265°
2026-05-05 21:12 -33.79058 149.35358 32695 ft 440 kts 265°
2026-05-05 21:12 -33.79351 149.31700 33061 ft 439 kts 265°
2026-05-05 21:12 -33.79643 149.28050 33434 ft 438 kts 265°
2026-05-05 21:12 -33.79933 149.24412 33777 ft 437 kts 265°
2026-05-05 21:13 -33.80221 149.20781 34133 ft 436 kts 265°
2026-05-05 21:13 -33.80508 149.17154 34442 ft 435 kts 265°
2026-05-05 21:13 -33.80789 149.13583 34732 ft 434 kts 265°
2026-05-05 21:13 -33.81071 149.09984 34957 ft 435 kts 265°
2026-05-05 21:14 -33.81354 149.06366 35219 ft 434 kts 265°
2026-05-05 21:14 -33.81634 149.02768 35499 ft 432 kts 265°
2026-05-05 21:14 -33.81914 148.99167 35768 ft 431 kts 266°
2026-05-05 21:14 -33.82191 148.95580 36043 ft 430 kts 266°
2026-05-05 21:15 -33.82466 148.92006 36255 ft 430 kts 266°
2026-05-05 21:15 -33.82741 148.88420 36290 ft 433 kts 266°
2026-05-05 21:15 -33.83291 148.81210 36266 ft 439 kts 266°
2026-05-05 21:16 -33.83848 148.73857 36261 ft 442 kts 266°
2026-05-05 21:16 -33.84405 148.66488 36260 ft 442 kts 265°
2026-05-05 21:17 -33.85519 148.59205 36274 ft 444 kts 260°
2026-05-05 21:17 -33.86716 148.51987 36273 ft 443 kts 260°
2026-05-05 21:18 -33.87921 148.44726 36260 ft 442 kts 260°
2026-05-05 21:18 -33.89122 148.37467 36264 ft 442 kts 260°
2026-05-05 21:19 -33.90320 148.30200 36261 ft 442 kts 260°
2026-05-05 21:19 -33.91511 148.22950 36253 ft 442 kts 260°
2026-05-05 21:20 -33.92691 148.15734 36259 ft 442 kts 260°
2026-05-05 21:20 -33.93875 148.08467 36259 ft 442 kts 260°
2026-05-05 21:21 -33.95055 148.01199 36253 ft 442 kts 260°
2026-05-05 21:21 -33.96229 147.93933 36254 ft 442 kts 260°
2026-05-05 21:22 -33.97392 147.86710 36256 ft 442 kts 260°
2026-05-05 21:22 -33.98559 147.79440 36257 ft 442 kts 260°
2026-05-05 21:23 -33.99720 147.72172 36257 ft 442 kts 261°
2026-05-05 21:23 -34.00878 147.64898 36256 ft 442 kts 261°
2026-05-05 21:24 -34.02022 147.57677 36258 ft 442 kts 261°
2026-05-05 21:24 -34.03168 147.50418 36259 ft 440 kts 261°
2026-05-05 21:25 -34.04307 147.43176 36259 ft 440 kts 261°
2026-05-05 21:25 -34.05443 147.35924 36251 ft 440 kts 261°
2026-05-05 21:26 -34.06574 147.28677 36258 ft 440 kts 261°
2026-05-05 21:26 -34.07691 147.21489 36259 ft 440 kts 261°
2026-05-05 21:27 -34.08814 147.14228 36255 ft 440 kts 261°
2026-05-05 21:27 -34.09933 147.06967 36257 ft 441 kts 261°
2026-05-05 21:28 -34.11047 146.99712 36259 ft 439 kts 261°
2026-05-05 21:28 -34.12149 146.92505 36255 ft 440 kts 261°
2026-05-05 21:29 -34.13253 146.85252 36254 ft 439 kts 261°
2026-05-05 21:29 -34.14354 146.77989 36259 ft 440 kts 261°
2026-05-05 21:30 -34.15452 146.70721 36263 ft 440 kts 261°
2026-05-05 21:30 -34.16537 146.63504 36261 ft 440 kts 261°
2026-05-05 21:31 -34.17625 146.56233 36276 ft 440 kts 261°
2026-05-05 21:31 -34.18708 146.48974 36266 ft 439 kts 261°
2026-05-05 21:32 -34.19785 146.41718 36269 ft 439 kts 261°
2026-05-05 21:32 -34.20851 146.34508 36265 ft 439 kts 261°
2026-05-05 21:33 -34.21922 146.27240 36261 ft 439 kts 261°
2026-05-05 21:33 -34.22990 146.19968 36259 ft 439 kts 261°
2026-05-05 21:34 -34.24053 146.12702 36262 ft 440 kts 261°
2026-05-05 21:34 -34.24973 146.05484 36251 ft 437 kts 269°
2026-05-05 21:35 -34.25214 145.98146 36257 ft 437 kts 269°
2026-05-05 21:35 -34.25452 145.90807 36262 ft 437 kts 269°
2026-05-05 21:36 -34.25683 145.83466 36262 ft 437 kts 269°
2026-05-05 21:36 -34.25907 145.76171 36266 ft 437 kts 269°
2026-05-05 21:37 -34.26129 145.68828 36259 ft 437 kts 269°
2026-05-05 21:37 -34.26346 145.61493 36259 ft 437 kts 269°
2026-05-05 21:38 -34.26558 145.54155 36262 ft 437 kts 269°
2026-05-05 21:38 -34.26766 145.46822 36268 ft 436 kts 269°
2026-05-05 21:39 -34.26968 145.39559 36266 ft 435 kts 269°
2026-05-05 21:39 -34.27167 145.32246 36265 ft 435 kts 269°
2026-05-05 21:40 -34.27361 145.24937 36259 ft 435 kts 269°
2026-05-05 21:40 -34.27552 145.17618 36265 ft 436 kts 270°
2026-05-05 21:41 -34.27736 145.10350 36265 ft 436 kts 270°
2026-05-05 21:41 -34.27918 145.03024 36263 ft 436 kts 270°
2026-05-05 21:42 -34.28095 144.95704 36266 ft 436 kts 270°
2026-05-05 21:42 -34.28267 144.88435 36279 ft 436 kts 270°
2026-05-05 21:43 -34.28435 144.81126 36265 ft 435 kts 270°
2026-05-05 21:43 -34.28599 144.73820 36264 ft 435 kts 270°
2026-05-05 21:44 -34.28759 144.66513 36265 ft 435 kts 270°
2026-05-05 21:44 -34.28914 144.59210 36263 ft 435 kts 270°
2026-05-05 21:45 -34.29064 144.51950 36263 ft 435 kts 270°
2026-05-05 21:45 -34.29210 144.44644 36265 ft 434 kts 270°
2026-05-05 21:46 -34.29352 144.37346 36265 ft 434 kts 270°
2026-05-05 21:46 -34.29490 144.30050 36266 ft 434 kts 270°
2026-05-05 21:47 -34.29622 144.22804 36266 ft 433 kts 270°
2026-05-05 21:47 -34.29751 144.15529 36266 ft 433 kts 270°
2026-05-05 21:48 -34.29876 144.08252 36265 ft 433 kts 270°
2026-05-05 21:48 -34.29996 144.00982 36265 ft 433 kts 270°
2026-05-05 21:49 -34.30112 143.93705 36265 ft 433 kts 270°
2026-05-05 21:49 -34.30222 143.86476 36265 ft 433 kts 271°
2026-05-05 21:50 -34.30330 143.79202 36266 ft 433 kts 271°
2026-05-05 21:50 -34.30432 143.71932 36270 ft 432 kts 271°
2026-05-05 21:51 -34.30531 143.64666 36274 ft 431 kts 271°
2026-05-05 21:51 -34.30624 143.57463 36272 ft 431 kts 271°
2026-05-05 21:52 -34.30758 143.46575 36264 ft 432 kts 271°
2026-05-05 21:53 -34.30841 143.39320 36272 ft 432 kts 271°
2026-05-05 21:53 -34.30920 143.32109 36271 ft 432 kts 271°
2026-05-05 21:54 -34.30994 143.24846 36265 ft 432 kts 271°
2026-05-05 21:54 -34.31065 143.17578 36268 ft 432 kts 271°
2026-05-05 21:55 -34.31132 143.10308 36282 ft 432 kts 271°
2026-05-05 21:55 -34.31193 143.03099 36269 ft 431 kts 271°
2026-05-05 21:56 -34.31251 142.95849 36268 ft 432 kts 271°
2026-05-05 21:56 -34.31305 142.88588 36268 ft 432 kts 271°
2026-05-05 21:57 -34.31354 142.81329 36271 ft 432 kts 271°
2026-05-05 21:57 -34.31398 142.74119 36269 ft 432 kts 271°
2026-05-05 21:58 -34.31439 142.66861 36268 ft 432 kts 272°
2026-05-05 21:58 -34.31476 142.59603 36266 ft 431 kts 272°
2026-05-05 21:59 -34.31508 142.52359 36266 ft 431 kts 272°
2026-05-05 21:59 -34.31535 142.45146 36271 ft 432 kts 272°
2026-05-05 22:00 -34.31559 142.37887 36271 ft 431 kts 272°
2026-05-05 22:00 -34.31578 142.30633 36273 ft 431 kts 272°
2026-05-05 22:01 -34.31594 142.23379 36274 ft 431 kts 272°
2026-05-05 22:01 -34.31604 142.16132 36274 ft 431 kts 272°
2026-05-05 22:02 -34.31611 142.08929 36273 ft 431 kts 272°
2026-05-05 22:02 -34.31613 142.01679 36274 ft 431 kts 271°
2026-05-05 22:03 -34.31611 141.94435 36280 ft 431 kts 271°
2026-05-05 22:03 -34.31604 141.87202 36273 ft 430 kts 272°
2026-05-05 22:04 -34.31594 141.80018 36273 ft 430 kts 271°
2026-05-05 22:04 -34.31579 141.72782 36275 ft 430 kts 271°
2026-05-05 22:05 -34.31560 141.65548 36275 ft 430 kts 271°
2026-05-05 22:05 -34.31537 141.58317 36276 ft 430 kts 271°
2026-05-05 22:06 -34.31509 141.51132 36273 ft 430 kts 272°
2026-05-05 22:06 -34.31478 141.43900 36273 ft 430 kts 272°
2026-05-05 22:07 -34.31442 141.36667 36284 ft 430 kts 272°
2026-05-05 22:07 -34.31402 141.29464 36275 ft 429 kts 271°
2026-05-05 22:08 -34.31358 141.22284 36276 ft 429 kts 271°
2026-05-05 22:08 -34.31309 141.15062 36276 ft 429 kts 272°
2026-05-05 22:09 -34.31256 141.07844 36270 ft 429 kts 271°
2026-05-05 22:09 -34.31199 141.00627 36273 ft 429 kts 271°
2026-05-05 22:10 -34.31138 140.93457 36277 ft 429 kts 271°
2026-05-05 22:10 -34.31073 140.86241 36277 ft 429 kts 271°
2026-05-05 22:11 -34.31003 140.79033 36277 ft 428 kts 272°
2026-05-05 22:11 -34.30929 140.71826 36276 ft 428 kts 272°
2026-05-05 22:12 -34.30852 140.64671 36275 ft 428 kts 272°
2026-05-05 22:12 -34.30770 140.57472 36276 ft 428 kts 272°
2026-05-05 22:13 -34.30683 140.50278 36280 ft 428 kts 272°
2026-05-05 22:13 -34.30593 140.43072 36279 ft 428 kts 272°
2026-05-05 22:14 -34.30498 140.35879 36277 ft 428 kts 272°
2026-05-05 22:14 -34.30399 140.28729 36294 ft 428 kts 272°
2026-05-05 22:15 -34.30296 140.21541 36285 ft 427 kts 272°
2026-05-05 22:15 -34.30189 140.14354 36282 ft 428 kts 272°
2026-05-05 22:16 -34.30078 140.07169 36282 ft 428 kts 272°
2026-05-05 22:16 -34.29963 140.00029 36282 ft 428 kts 272°
2026-05-05 22:17 -34.29843 139.92841 36281 ft 427 kts 272°
2026-05-05 22:17 -34.29719 139.85662 36281 ft 427 kts 272°
2026-05-05 22:18 -34.29591 139.78482 36284 ft 427 kts 272°
2026-05-05 22:18 -34.29460 139.71342 36280 ft 427 kts 272°
2026-05-05 22:19 -34.29323 139.64161 36282 ft 427 kts 272°
2026-05-05 22:19 -34.29183 139.56980 36284 ft 427 kts 272°
2026-05-05 22:20 -34.29038 139.49799 36281 ft 427 kts 272°
2026-05-05 22:20 -34.28890 139.42675 36286 ft 427 kts 272°
2026-05-05 22:21 -34.28737 139.35493 36289 ft 427 kts 272°
2026-05-05 22:21 -34.28579 139.28317 36292 ft 427 kts 272°
2026-05-05 22:22 -34.28418 139.21146 36307 ft 426 kts 272°
2026-05-05 22:22 -34.28254 139.14044 36294 ft 426 kts 272°
2026-05-05 22:23 -34.28085 139.06886 36299 ft 425 kts 272°
2026-05-05 22:23 -34.27912 138.99751 36296 ft 424 kts 272°
2026-05-05 22:24 -34.27735 138.92618 36301 ft 424 kts 272°
2026-05-05 22:24 -34.27555 138.85540 36290 ft 424 kts 272°
2026-05-05 22:25 -34.27370 138.78408 36304 ft 425 kts 272°
2026-05-05 22:25 -34.27180 138.71288 36316 ft 424 kts 272°
2026-05-05 22:26 -34.26988 138.64195 36293 ft 423 kts 272°
2026-05-05 22:26 -34.26792 138.57130 36295 ft 424 kts 272°
2026-05-05 22:27 -34.26591 138.50006 36292 ft 424 kts 273°
2026-05-05 22:27 -34.26385 138.42883 36285 ft 424 kts 272°
2026-05-05 22:28 -34.26175 138.35754 36292 ft 424 kts 272°
2026-05-05 22:28 -34.25963 138.28683 36290 ft 424 kts 272°
2026-05-05 22:29 -34.25745 138.21559 36307 ft 424 kts 273°
2026-05-05 22:29 -34.25523 138.14446 36290 ft 423 kts 273°
2026-05-05 22:30 -34.25297 138.07347 36285 ft 423 kts 273°
2026-05-05 22:30 -34.25069 138.00292 36279 ft 423 kts 272°
2026-05-05 22:31 -34.24836 137.93203 36290 ft 423 kts 273°
2026-05-05 22:31 -34.24598 137.86101 36286 ft 423 kts 273°
2026-05-05 22:32 -34.24356 137.79000 36283 ft 423 kts 272°
2026-05-05 22:32 -34.24112 137.71956 36288 ft 423 kts 273°
2026-05-05 22:33 -34.23862 137.64872 36288 ft 422 kts 273°
2026-05-05 22:33 -34.23609 137.57788 36283 ft 422 kts 273°
2026-05-05 22:34 -34.23351 137.50707 36273 ft 422 kts 273°
2026-05-05 22:34 -34.23091 137.43675 36289 ft 422 kts 273°
2026-05-05 22:35 -34.22826 137.36597 36282 ft 422 kts 273°
2026-05-05 22:35 -34.22555 137.29511 36284 ft 422 kts 273°
2026-05-05 22:36 -34.22281 137.22430 36285 ft 422 kts 273°
2026-05-05 22:36 -34.22005 137.15397 36290 ft 422 kts 273°
2026-05-05 22:37 -34.21723 137.08320 36286 ft 422 kts 273°
2026-05-05 22:37 -34.21438 137.01244 36287 ft 422 kts 273°
2026-05-05 22:38 -34.21147 136.94159 36284 ft 422 kts 273°
2026-05-05 22:38 -34.20855 136.87129 36292 ft 422 kts 273°
2026-05-05 22:39 -34.20557 136.80052 36298 ft 422 kts 273°
2026-05-05 22:39 -34.20254 136.72972 36314 ft 422 kts 273°
2026-05-05 22:40 -34.19947 136.65888 36299 ft 422 kts 273°
2026-05-05 22:40 -34.19639 136.58867 36296 ft 422 kts 273°
2026-05-05 22:41 -34.19325 136.51789 36299 ft 422 kts 273°
2026-05-05 22:41 -34.19007 136.44734 36300 ft 422 kts 273°
2026-05-05 22:42 -34.18685 136.37655 36301 ft 422 kts 273°
2026-05-05 22:42 -34.18362 136.30632 36300 ft 422 kts 273°
2026-05-05 22:43 -34.18033 136.23553 36311 ft 422 kts 273°
2026-05-05 22:43 -34.17701 136.16490 36303 ft 422 kts 273°
2026-05-05 22:44 -34.17364 136.09418 36304 ft 422 kts 273°
2026-05-05 22:44 -34.17025 136.02390 36309 ft 422 kts 273°
2026-05-05 22:45 -34.16681 135.95318 36304 ft 422 kts 273°
2026-05-05 22:45 -34.16332 135.88246 36307 ft 422 kts 273°
2026-05-05 22:46 -34.15980 135.81178 36316 ft 422 kts 273°
2026-05-05 22:46 -34.15623 135.74107 36313 ft 422 kts 273°
2026-05-05 22:47 -34.15265 135.67077 36314 ft 423 kts 273°
2026-05-05 22:47 -34.14900 135.59994 36311 ft 423 kts 273°
2026-05-05 22:48 -34.14531 135.52926 36312 ft 423 kts 273°
2026-05-05 22:48 -34.14158 135.45831 36313 ft 423 kts 273°
2026-05-05 22:49 -34.13783 135.38794 36310 ft 423 kts 273°
2026-05-05 22:49 -34.13397 135.31710 36331 ft 423 kts 273°
2026-05-05 22:50 -34.13034 135.24619 36313 ft 424 kts 273°
2026-05-05 22:50 -34.12674 135.17517 36312 ft 424 kts 273°
2026-05-05 22:51 -34.12315 135.10466 36313 ft 424 kts 273°
2026-05-05 22:51 -34.11948 135.03363 36312 ft 424 kts 273°
2026-05-05 22:52 -34.11578 134.96265 36306 ft 425 kts 273°
2026-05-05 22:52 -34.11202 134.89150 36314 ft 426 kts 273°
2026-05-05 22:53 -34.10827 134.82123 36313 ft 426 kts 273°
2026-05-05 22:53 -34.10443 134.74993 36314 ft 426 kts 273°
2026-05-05 22:54 -34.10055 134.67880 36314 ft 425 kts 273°
2026-05-05 22:54 -34.09664 134.60781 36320 ft 425 kts 273°
2026-05-05 22:55 -34.09270 134.53703 36316 ft 426 kts 273°
2026-05-05 22:55 -34.08869 134.46572 36314 ft 426 kts 273°
2026-05-05 22:56 -34.08464 134.39442 36321 ft 427 kts 273°
2026-05-05 22:56 -34.08054 134.32295 36314 ft 426 kts 273°
2026-05-05 22:57 -34.07643 134.25214 36319 ft 426 kts 273°
2026-05-05 22:57 -34.07225 134.18075 36321 ft 428 kts 273°
2026-05-05 22:58 -34.06801 134.10898 36319 ft 429 kts 273°
2026-05-05 22:58 -34.06373 134.03735 36320 ft 429 kts 273°
2026-05-05 22:59 -34.05939 133.96553 36318 ft 429 kts 273°
2026-05-05 22:59 -34.05506 133.89435 36322 ft 429 kts 273°
2026-05-05 23:00 -34.04842 133.78674 36324 ft 430 kts 273°
2026-05-05 23:00 -34.04394 133.71486 36328 ft 430 kts 273°
2026-05-05 23:01 -34.03944 133.64336 36331 ft 431 kts 273°
2026-05-05 23:01 -34.03486 133.57137 36329 ft 431 kts 273°
2026-05-05 23:02 -34.03025 133.49943 36333 ft 431 kts 273°
2026-05-05 23:02 -34.02561 133.42776 36334 ft 431 kts 273°
2026-05-05 23:03 -34.02093 133.35611 36335 ft 433 kts 273°
2026-05-05 23:03 -34.01616 133.28378 36332 ft 433 kts 273°
2026-05-05 23:04 -34.01135 133.21149 36336 ft 433 kts 273°
2026-05-05 23:04 -34.00651 133.13925 36337 ft 434 kts 273°
2026-05-05 23:05 -34.00163 133.06724 36336 ft 434 kts 273°
2026-05-05 23:05 -33.99668 132.99472 36336 ft 435 kts 273°
2026-05-05 23:06 -33.99167 132.92203 36336 ft 435 kts 273°
2026-05-05 23:06 -33.98662 132.84938 36328 ft 435 kts 273°
2026-05-05 23:07 -33.98154 132.77688 36335 ft 434 kts 273°
2026-05-05 23:07 -33.97645 132.70478 36335 ft 434 kts 273°
2026-05-05 23:08 -33.97129 132.63231 36341 ft 435 kts 273°
2026-05-05 23:08 -33.96607 132.55977 36345 ft 436 kts 273°
2026-05-05 23:09 -33.96080 132.48697 36338 ft 436 kts 273°
2026-05-05 23:09 -33.95553 132.41482 36346 ft 435 kts 273°
2026-05-05 23:10 -33.95018 132.34214 36349 ft 436 kts 273°
2026-05-05 23:10 -33.94478 132.26937 36349 ft 436 kts 273°
2026-05-05 23:11 -33.93933 132.19663 36350 ft 436 kts 273°
2026-05-05 23:11 -33.93388 132.12430 36350 ft 437 kts 274°
2026-05-05 23:12 -33.92833 132.05140 36345 ft 437 kts 274°
2026-05-05 23:12 -33.92276 131.97861 36348 ft 437 kts 274°
2026-05-05 23:13 -33.91713 131.90569 36350 ft 438 kts 274°
2026-05-05 23:13 -33.91149 131.83318 36354 ft 438 kts 274°
2026-05-05 23:14 -33.90579 131.76016 36363 ft 438 kts 274°
2026-05-05 23:14 -33.90003 131.68712 36350 ft 438 kts 274°
2026-05-05 23:15 -33.89424 131.61408 36356 ft 439 kts 274°
2026-05-05 23:15 -33.88844 131.54152 36359 ft 439 kts 274°
2026-05-05 23:16 -33.88242 131.46839 36359 ft 439 kts 274°
2026-05-05 23:16 -33.87637 131.39523 36361 ft 439 kts 274°
2026-05-05 23:17 -33.87031 131.32209 36360 ft 440 kts 274°
2026-05-05 23:17 -33.86424 131.24939 36363 ft 440 kts 274°
2026-05-05 23:18 -33.85808 131.17610 36365 ft 440 kts 274°
2026-05-05 23:18 -33.85188 131.10296 36366 ft 440 kts 274°
2026-05-05 23:19 -33.84563 131.02969 36365 ft 441 kts 274°
2026-05-05 23:19 -33.83938 130.95691 36368 ft 441 kts 274°
2026-05-05 23:20 -33.83304 130.88359 36354 ft 441 kts 274°
2026-05-05 23:20 -33.82664 130.81015 36366 ft 442 kts 274°
2026-05-05 23:21 -33.82020 130.73674 36368 ft 442 kts 274°
2026-05-05 23:21 -33.81379 130.66410 36368 ft 442 kts 274°
2026-05-05 23:22 -33.80723 130.59039 36373 ft 442 kts 274°
2026-05-05 23:22 -33.80066 130.51701 36374 ft 442 kts 274°
2026-05-05 23:23 -33.79405 130.44368 36369 ft 442 kts 274°
2026-05-05 23:23 -33.78738 130.37014 36375 ft 442 kts 274°
2026-05-05 23:24 -33.78071 130.29715 36375 ft 442 kts 274°
2026-05-05 23:24 -33.77395 130.22361 36375 ft 443 kts 274°
2026-05-05 23:25 -33.76715 130.15017 36376 ft 443 kts 274°
2026-05-05 23:25 -33.76146 130.08903 36379 ft 443 kts 275°
2026-05-05 23:26 -33.75345 130.00354 36372 ft 443 kts 275°
2026-05-05 23:26 -33.74649 129.92981 36376 ft 444 kts 275°
2026-05-05 23:27 -33.74067 129.86857 36385 ft 444 kts 275°
2026-05-05 23:27 -33.73364 129.79490 36386 ft 444 kts 275°
2026-05-05 23:28 -33.72541 129.70927 36377 ft 444 kts 275°
2026-05-05 23:28 -33.71827 129.63560 36381 ft 444 kts 275°
2026-05-05 23:29 -33.71230 129.57425 36383 ft 445 kts 275°
2026-05-05 23:29 -33.70508 129.50053 36385 ft 445 kts 275°
2026-05-05 23:30 -33.69780 129.42660 36389 ft 445 kts 275°
2026-05-05 23:30 -33.69048 129.35282 36392 ft 445 kts 275°
2026-05-05 23:31 -33.68316 129.27946 36393 ft 445 kts 275°
2026-05-05 23:31 -33.67576 129.20577 36390 ft 445 kts 275°
2026-05-05 23:32 -33.66831 129.13198 36390 ft 446 kts 275°
2026-05-05 23:32 -33.66081 129.05814 36394 ft 446 kts 275°
2026-05-05 23:33 -33.65331 128.98473 36395 ft 446 kts 275°
2026-05-05 23:33 -33.64571 128.91086 36401 ft 446 kts 275°
2026-05-05 23:34 -33.63807 128.83700 36403 ft 447 kts 275°
2026-05-05 23:34 -33.63038 128.76305 36389 ft 447 kts 275°
2026-05-05 23:35 -33.62268 128.68955 36399 ft 447 kts 275°
2026-05-05 23:35 -33.61490 128.61563 36402 ft 447 kts 275°
2026-05-05 23:36 -33.60706 128.54156 36400 ft 448 kts 275°
2026-05-05 23:36 -33.59917 128.46750 36406 ft 447 kts 275°
2026-05-05 23:37 -33.59130 128.39397 36404 ft 448 kts 275°
2026-05-05 23:37 -33.58334 128.32004 36401 ft 448 kts 275°
2026-05-05 23:38 -33.57533 128.24597 36406 ft 448 kts 275°
2026-05-05 23:38 -33.56729 128.17193 36407 ft 448 kts 275°
2026-05-05 23:39 -33.55918 128.09778 36406 ft 448 kts 275°
2026-05-05 23:39 -33.55110 128.02423 36407 ft 448 kts 275°
2026-05-05 23:40 -33.54288 127.95012 36408 ft 448 kts 275°
2026-05-05 23:40 -33.53468 127.87597 36404 ft 449 kts 275°
2026-05-05 23:41 -33.52644 127.80176 36408 ft 449 kts 275°
2026-05-05 23:41 -33.51822 127.72815 36408 ft 449 kts 276°
2026-05-05 23:42 -33.50989 127.65392 36423 ft 450 kts 276°
2026-05-05 23:42 -33.50152 127.57976 36418 ft 450 kts 276°
2026-05-05 23:43 -33.49314 127.50597 36417 ft 450 kts 276°
2026-05-05 23:43 -33.48467 127.43173 36418 ft 451 kts 276°
2026-05-05 23:44 -33.47613 127.35734 36412 ft 451 kts 276°
2026-05-05 23:44 -33.46756 127.28301 36423 ft 451 kts 276°
2026-05-05 23:45 -33.45893 127.20863 36418 ft 451 kts 276°
2026-05-05 23:45 -33.45031 127.13476 36416 ft 452 kts 276°
2026-05-05 23:46 -33.44159 127.06037 36424 ft 451 kts 276°
2026-05-05 23:46 -33.43282 126.98594 36409 ft 452 kts 276°
2026-05-05 23:47 -33.42400 126.91146 36422 ft 452 kts 276°
2026-05-05 23:47 -33.41519 126.83748 36422 ft 452 kts 276°
2026-05-05 23:48 -33.40626 126.76292 36421 ft 452 kts 276°
2026-05-05 23:48 -33.39730 126.68843 36425 ft 453 kts 276°
2026-05-05 23:49 -33.38827 126.61381 36425 ft 453 kts 276°
2026-05-05 23:49 -33.37921 126.53927 36423 ft 453 kts 276°
2026-05-05 23:50 -33.37016 126.46519 36420 ft 453 kts 276°
2026-05-05 23:50 -33.36099 126.39054 36424 ft 454 kts 276°
2026-05-05 23:51 -33.35178 126.31590 36425 ft 454 kts 276°
2026-05-05 23:51 -33.34253 126.24134 36419 ft 454 kts 276°
2026-05-05 23:52 -33.33327 126.16707 36425 ft 455 kts 276°
2026-05-05 23:52 -33.32390 126.09232 36424 ft 455 kts 276°
2026-05-05 23:53 -33.31449 126.01764 36427 ft 454 kts 276°
2026-05-05 23:53 -33.30506 125.94310 36432 ft 454 kts 276°
2026-05-05 23:54 -33.29563 125.86899 36427 ft 454 kts 276°
2026-05-05 23:54 -33.28610 125.79439 36432 ft 454 kts 276°
2026-05-05 23:55 -33.27651 125.71977 36434 ft 455 kts 276°
2026-05-05 23:55 -33.26687 125.64508 36436 ft 455 kts 276°
2026-05-05 23:56 -33.25726 125.57094 36427 ft 455 kts 276°
2026-05-05 23:56 -33.24753 125.49632 36431 ft 455 kts 276°
2026-05-05 23:57 -33.23775 125.42163 36438 ft 455 kts 276°
2026-05-05 23:57 -33.22794 125.34701 36441 ft 455 kts 277°
2026-05-05 23:58 -33.21813 125.27281 36439 ft 455 kts 277°
2026-05-05 23:58 -33.20823 125.19812 36437 ft 456 kts 276°
2026-05-05 23:59 -33.19827 125.12333 36442 ft 456 kts 277°
2026-05-05 23:59 -33.18827 125.04863 36439 ft 455 kts 277°
2026-05-06 00:00 -33.17814 124.97403 36443 ft 456 kts 277°
2026-05-06 00:00 -33.16802 124.89989 36448 ft 456 kts 277°
2026-05-06 00:01 -33.15779 124.82515 36447 ft 456 kts 277°
2026-05-06 00:01 -33.14753 124.75053 36448 ft 456 kts 277°
2026-05-06 00:02 -33.13722 124.67582 36451 ft 457 kts 277°
2026-05-06 00:02 -33.12691 124.60156 36448 ft 457 kts 277°
2026-05-06 00:03 -33.11650 124.52685 36454 ft 457 kts 277°
2026-05-06 00:03 -33.10606 124.45221 36447 ft 457 kts 277°
2026-05-06 00:04 -33.09553 124.37735 36453 ft 458 kts 277°
2026-05-06 00:04 -33.08503 124.30301 36463 ft 457 kts 277°
2026-05-06 00:05 -33.06911 124.19096 36461 ft 458 kts 277°
2026-05-06 00:06 -33.05843 124.11615 36458 ft 457 kts 277°
2026-05-06 00:06 -33.04771 124.04143 36466 ft 457 kts 277°
2026-05-06 00:07 -33.03694 123.96673 36462 ft 457 kts 277°
2026-05-06 00:07 -33.02622 123.89261 36472 ft 458 kts 277°
2026-05-06 00:08 -33.01536 123.81794 36468 ft 458 kts 277°
2026-05-06 00:08 -33.00444 123.74312 36475 ft 458 kts 277°
2026-05-06 00:09 -32.99349 123.66844 36471 ft 458 kts 277°
2026-05-06 00:09 -32.98251 123.59383 36474 ft 458 kts 277°
2026-05-06 00:10 -32.97154 123.51967 36482 ft 458 kts 277°
2026-05-06 00:10 -32.96046 123.44508 36486 ft 458 kts 277°
2026-05-06 00:11 -32.94934 123.37047 36483 ft 458 kts 277°
2026-05-06 00:11 -32.93818 123.29595 36485 ft 458 kts 277°
2026-05-06 00:12 -32.92704 123.22187 36484 ft 458 kts 277°
2026-05-06 00:12 -32.91578 123.14737 36473 ft 458 kts 278°
2026-05-06 00:13 -32.90449 123.07286 36486 ft 457 kts 278°
2026-05-06 00:13 -32.89316 122.99852 36483 ft 457 kts 278°
2026-05-06 00:14 -32.88178 122.92408 36487 ft 457 kts 278°
2026-05-06 00:14 -32.87044 122.85022 36484 ft 457 kts 278°
2026-05-06 00:15 -32.85897 122.77583 36489 ft 457 kts 278°
2026-05-06 00:15 -32.84747 122.70150 36492 ft 457 kts 278°
2026-05-06 00:16 -32.83591 122.62718 36490 ft 457 kts 278°
2026-05-06 00:16 -32.82440 122.55342 36491 ft 457 kts 278°
2026-05-06 00:17 -32.81277 122.47918 36493 ft 457 kts 278°
2026-05-06 00:17 -32.80111 122.40505 36495 ft 457 kts 278°
2026-05-06 00:18 -32.78939 122.33085 36492 ft 457 kts 278°
2026-05-06 00:18 -32.77762 122.25666 36498 ft 457 kts 278°
2026-05-06 00:19 -32.76590 122.18303 36502 ft 457 kts 278°
2026-05-06 00:19 -32.75408 122.10900 36500 ft 456 kts 278°
2026-05-06 00:20 -32.74221 122.03494 36496 ft 456 kts 278°
2026-05-06 00:20 -32.73031 121.96092 36499 ft 456 kts 278°
2026-05-06 00:21 -32.71837 121.88698 36500 ft 456 kts 278°
2026-05-06 00:21 -32.71055 121.81302 36504 ft 455 kts 274°
2026-05-06 00:22 -32.70304 121.73844 36500 ft 455 kts 275°
2026-05-06 00:22 -32.69526 121.66389 36502 ft 455 kts 275°
2026-05-06 00:23 -32.68743 121.58938 36493 ft 455 kts 275°
2026-05-06 00:23 -32.67961 121.51540 36501 ft 455 kts 275°
2026-05-06 00:24 -32.67168 121.44088 36501 ft 455 kts 275°
2026-05-06 00:24 -32.66371 121.36637 36504 ft 455 kts 275°
2026-05-06 00:25 -32.65571 121.29199 36507 ft 455 kts 275°
2026-05-06 00:25 -32.64766 121.21751 36504 ft 455 kts 275°
2026-05-06 00:26 -32.63961 121.14351 36505 ft 455 kts 275°
2026-05-06 00:26 -32.63145 121.06899 36508 ft 455 kts 275°
2026-05-06 00:27 -32.62327 120.99458 36505 ft 455 kts 275°
2026-05-06 00:27 -32.61504 120.92017 36503 ft 455 kts 275°
2026-05-06 00:28 -32.60681 120.84617 36511 ft 455 kts 275°
2026-05-06 00:28 -32.59848 120.77172 36508 ft 455 kts 275°
2026-05-06 00:29 -32.59012 120.69735 36509 ft 455 kts 275°
2026-05-06 00:29 -32.58171 120.62294 36517 ft 455 kts 275°
2026-05-06 00:30 -32.57325 120.54850 36514 ft 455 kts 275°